Showing default

YAOGAN-30 U, 46807

Orbit data source: Space-Track

YAOGAN-30 U, 46807 is a payload satellite owned by PLA SSF (CN) in LEO that was launched on Mon, 26 Oct 2020 UTC via a CHANG ZHENG 2C launch vehicle from the Xichang Space Center, China (XSC). Payload-class satellites include a variety of spacecraft equipped with specific instruments for various scientific and technological missions. These include communications satellites like Starlink; space stations such as the ISS; scientific satellites like the Hubble; Earth observation satellites from companies like Planet Labs, Umbra, and HawkEye 360; GPS; miniature CubeSats for education and research; and military/defense satellites.

Loading next visibility...
Identifier
46807, 2020-076A
Orbit
LEO
Last TLE update
10 hours ago
Origin
Manufacturer
SECM
Mission
Operational Defense Sigint
Bus & Motor
Unknown
Mass
~500 kg wet, ~500 kg dry
Launch date (UTC)
2020-10-26 (5 years ago)
Launch vehicle
CHANG ZHENG 2C
Launch site
Xichang Space Center, China (XSC)
Object type
Payload
Rocket body
Debris
Shape & HBR
Box + 2 Pan, Unknown HBR
Radar Cross Section
0.446 m², Large (>1 m²)

Expand to show TLE details & history

TLE from 10 hours ago
0 YAOGAN-30 U
1 46807U 20076A   25184.09000267  .00002249  00000-0  17918-3 0  9990
2 46807  34.9949  54.9951 0002015 291.6191  68.4302 15.00070137255734
Epoch: 2025-07-03T02:09Z
TLE epoch observation values (Epoch: 2025-07-03T02:09:36.23Z)
Latitude
-0°
Longitude
101.23239°
Altitude
565.083 km
Speed
7.581 km/s
True Right ascension
03h 39m 58s
True Declination
0° 00' 00"
Sunlit
Object was in daylight at epoch
Visualization orbit readout
Latitude
14.03275°
Longitude
-102.16269°
Altitude
565.929 km
Speed
7.581 km/s
Apparent Right ascension
13h 18m 40s
Apparent Declination
-11° 59' 18"
Sunlit
Object is in daylight
Visualization observer readout
Local Sidereal Time
00:12:35
Azimuth
327.841° NNW
Elevation
-58.491°
Doppler factor
1
Orbital elements
Apogee altitude
571.298 km
Perigee altitude
568.498 km
Semi-major axis
6,948.035 km
Eccentricity
0.0002
Inclination
34.9949°
RAAN
54.9951°
Arg. of periapsis
291.6191°
True anomaly
Unknown
Mean anomaly
68.4302°
Eccentric anomaly
Unknown
Mean motion
3.74757 °/min
Orbital period
96.06 mins
BSTAR
0.00017918
Loading maneuver chart data...
Loading SW <> Apogee altitude chart data...
Loading historical data...
Loading historical data...
Loading historical data...
Loading historical data...
Loading historical data...
Loading historical data...
Loading historical data...
Other satellites on launch #76 in the year 2020 (2020-10-26 UTC)

YAOGAN-30 U Visibility forecast

Observer location: undefined°, undefined°

Span
Click to sort rows by Start time (UTC) header in descending order
Start Az.
Max El. time (UTC)
Max El. Az.
Max El.
End time (UTC)
End Az.
6 mins2025-07-03 20:00:55.291Z216.377° SW2025-07-03 20:02:55.291Z174.678° S27.744°2025-07-03 20:06:55.291Z103.658° ESE
6 mins2025-07-03 21:41:55.291Z241.344° WSW2025-07-03 21:43:55.291Z195.769° SSW33.507°2025-07-03 21:47:55.291Z112.606° SE
5 mins2025-07-03 23:22:55.291Z243.562° WSW2025-07-03 23:24:55.291Z206.223° SW24.336°2025-07-03 23:27:55.291Z147.429° SSE
|